Regional Weather Roundup
Issued by NWS Cleveland, OH

Home | Current Version | Previous Version | Graphics & Text | Print | Product List | Glossary On
Versions: 1 2 3 4 5 6 7 8 9 10 11 12 13 14 15 16 17 18 19 20 21 22 23 24 25 26 27 28 29 30 31 32 33 34 35 36 37 38 39 40 41 42 43 44 45 46 47 48 49 50
000
ASUS41 KCLE 051302
RWRCLE
OHIO REGIONAL WEATHER ROUNDUP
NATIONAL WEATHER SERVICE CLEVELAND, OH
900 AM EDT SAT SEP 05 2015

NOTE: "FAIR" INDICATES FEW OR NO CLOUDS BELOW 12,000 FEET WITH NO
SIGNIFICANT WEATHER AND/OR OBSTRUCTIONS TO VISIBILITY.

OHZ001>008-015>018-024>027-034-035-043-044-051400-
   NORTHWEST OHIO

CITY           SKY/WX    TMP DP  RH WIND       PRES   REMARKS
DEFIANCE       PTSUNNY   69  64  84 CALM      30.16R
FINDLAY        LGT RAIN  68  65  90 E9        30.17R
TOLEDO EXPRESS CLOUDY    69  65  86 CALM      30.15S
TOLEDO EXEC    RAIN      70  64  81 S7        30.15F
LIMA           TSTM      67  64  90 E8        30.18R FOG
$$

OHZ009>014-019>023-028>033-038-089-051400-
   NORTHEAST OHIO

CITY           SKY/WX    TMP DP  RH WIND       PRES   REMARKS
CLE-HOPKINS    MOSUNNY   70  65  84 SW3       30.21R
CLE-LAKEFRONT  PTSUNNY   74  65  73 SW7       30.18R
CUY CO. ARPT   PTSUNNY   75  68  78 W9        30.20R
LORAIN-ELYRIA  MOSUNNY   70  64  81 SW3       30.19R
ASHTABULA      SUNNY     71  67  87 S5        30.21R
AKRON-CANTON   MOSUNNY   72  65  78 CALM      30.20R
WOOSTER        SUNNY     70  66  87 NW3       30.21R
MANSFIELD      SUNNY     72  62  71 NW3       30.20R
YOUNGSTOWN     MOSUNNY   71  65  81 SE8       30.21R
$$

OHZ042-051>053-060>062-070>072-077>081-051400-
  SOUTHWEST OHIO

CITY           SKY/WX    TMP DP  RH WIND       PRES   REMARKS
CINC-COVINGTON MOSUNNY   72  66  81 CALM      30.16R
CINC-LUNKEN    SUNNY     69  67  93 CALM      30.16R
HAMILTON       SUNNY     71  66  84 CALM      30.17R
DAYTON         PTSUNNY   70  65  84 CALM      30.18R
WRIGHT-PAT AFB NOT AVBL
DAYTON GENERAL SUNNY     69  64  84 NE5       30.17R
WILMINGTON     SUNNY     70  64  81 NE3       30.17R
$$

OHZ036-037-039>041-045>050-054>059-063>069-073>076-082>088-051400-
  CENTRAL AND SOUTHEAST OHIO

CITY           SKY/WX    TMP DP  RH WIND       PRES   REMARKS
COLUMBUS       MOSUNNY   70  64  81 CALM      30.17R
OSU AIRPORT    SUNNY     70  66  87 CALM      30.18R
BOLTON FIELD   SUNNY     68  68 100 CALM      30.19R
RICKENBACK AFB SUNNY     68  65  91 NE3       30.18R
NEWARK         SUNNY     69  65  86 CALM      30.19R
MARION         MOSUNNY   70  64  81 SE3       30.18S
LANCASTER      SUNNY     69  65  86 CALM      30.18S
ZANESVILLE     SUNNY     70  65  84 CALM      30.18R
NEW PHILLY     PTSUNNY   66  66 100 CALM      30.19R FOG
$$



USA.gov is the U.S. government's official web portal to all federal, state and local government web resources and services.